CW2157 Weather Reports


time (UTC)temp
C
wind
direction
speed
KPH
gust
KPH
rain 1hr
cm
rain 24hr
cm
rain mn
cm
humidity
%
barometer
mb
20260902120705 24 72 9.7 19.3 0.00 0.00 0.00 87 1016.3
20260902120204 24 58 14.5 19.3 0.00 0.00 0.00 88 1016.3
20260902115203 24 65 12.9 19.3 0.00 0.00 0.00 88 1016.4
20260902114704 23 58 14.5 16.1 0.00 0.00 0.00 89 1016.3
20260902114204 23 72 12.9 19.3 0.00 0.00 0.00 91 1016.2
20260902113704 23 83 9.7 14.5 0.00 0.00 0.00 91 1016.2
20260902112704 23 68 11.3 16.1 0.00 0.00 0.00 92 1016.2
20260902112204 23 67 8.0 16.1 0.00 0.00 0.00 92 1016.1
20260902111704 23 71 9.7 14.5 0.00 0.00 0.00 92 1016.0
20260902111204 23 62 6.4 12.9 0.00 0.00 0.00 92 1016.0
20260902110704 23 50 3.2 8.0 0.00 0.00 0.00 92 1016.0
20260902105704 22 58 1.6 4.8 0.00 0.00 0.00 91 1015.8
20260902105204 22 28 3.2 4.8 0.00 0.00 0.00 91 1015.8
20260902104704 22 20 3.2 8.0 0.00 0.00 0.00 91 1015.6
20260902103704 22 67 3.2 4.8 0.00 0.00 0.00 90 1015.6
20260902103204 22 78 3.2 4.8 0.00 0.00 0.00 90 1015.4
20260902100704 22 24 0.0 0.0 0.00 0.00 0.00 90 1015.5
20260902100204 22 24 1.6 1.6 0.00 0.00 0.00 90 1015.6
20260902095704 22 24 0.0 1.6 0.00 0.00 0.00 90 1015.5
20260902095204 22 24 1.6 3.2 0.00 0.00 0.00 90 1015.5
20260902094705 22 24 0.0 3.2 0.00 0.00 0.00 89 1015.4
20260902094205 22 24 0.0 0.0 0.00 0.00 0.00 89 1015.3
20260902093706 22 24 0.0 3.2 0.00 0.00 0.00 89 1015.3
20260902093206 22 24 1.6 3.2 0.00 0.00 0.00 89 1015.4
20260902092206 22 337 0.0 1.6 0.00 0.00 0.00 88 1015.4
20260902091706 23 325 0.0 1.6 0.00 0.00 0.00 88 1015.4
20260902091205 23 334 0.0 1.6 0.00 0.00 0.00 88 1015.3
20260902090705 23 334 0.0 3.2 0.00 0.00 0.00 87 1015.4
20260902090206 23 349 0.0 0.0 0.00 0.00 0.00 87 1015.6
20260902085705 23 10 0.0 1.6 0.00 0.00 0.00 87 1015.4
20260902085206 23 10 1.6 3.2 0.00 0.00 0.00 87 1015.4
20260902084706 23 10 0.0 1.6 0.00 0.00 0.00 87 1015.4
20260902084205 23 10 0.0 3.2 0.00 0.00 0.00 86 1015.3
20260902083706 23 10 1.6 3.2 0.00 0.00 0.00 86 1015.3
20260902083205 23 88 1.6 1.6 0.00 0.00 0.00 86 1015.4
20260902082205 23 131 0.0 3.2 0.00 0.00 0.00 86 1015.3
20260902081705 23 131 1.6 3.2 0.00 0.00 0.00 85 1015.1
20260902080705 23 86 3.2 4.8 0.00 0.00 0.00 85 1015.1
20260902080206 23 60 1.6 4.8 0.00 0.00 0.00 86 1015.1
20260902075706 23 91 0.0 3.2 0.00 0.00 0.00 86 1015.1
20260902075205 24 114 1.6 4.8 0.00 0.00 0.00 85 1015.0
20260902074705 24 105 1.6 4.8 0.00 0.00 0.00 85 1015.0
20260902074206 24 105 1.6 3.2 0.00 0.00 0.00 85 1015.0
20260902073705 24 105 1.6 4.8 0.00 0.00 0.00 86 1014.9
20260902073205 24 105 1.6 4.8 0.00 0.00 0.00 85 1014.8
20260902072705 24 100 3.2 4.8 0.00 0.00 0.00 85 1014.9
20260902072206 24 96 1.6 4.8 0.00 0.00 0.00 85 1014.9
20260902071705 24 101 3.2 4.8 0.00 0.00 0.00 85 1014.8
20260902071206 24 108 3.2 4.8 0.00 0.00 0.00 84 1014.6
20260902070706 24 141 3.2 4.8 0.00 0.00 0.00 85 1014.7
20260902070206 24 120 1.6 4.8 0.00 0.00 0.00 85 1014.7
20260902065705 24 92 3.2 8.0 0.00 0.00 0.00 85 1014.6
20260902064705 24 111 3.2 9.7 0.00 0.00 0.00 85 1014.6
20260902064205 24 96 4.8 11.3 0.00 0.00 0.00 85 1014.6
20260902063705 25 82 3.2 9.7 0.00 0.00 0.00 84 1014.7
20260902063205 25 86 6.4 19.3 0.00 0.00 0.00 84 1014.8
20260902062705 25 98 4.8 14.5 0.00 0.00 0.00 83 1014.7
20260902061705 25 67 9.7 16.1 0.00 0.00 0.00 83 1015.0
20260902060705 25 33 8.0 14.5 0.00 0.00 0.00 82 1015.3
20260902055205 25 107 8.0 20.9 0.00 0.00 0.00 82 1014.8
20260902054706 25 79 4.8 20.9 0.00 0.00 0.00 80 1014.6
20260902054206 25 67 16.1 22.5 0.00 0.00 0.00 81 1014.9
20260902053706 25 109 11.3 22.5 0.00 0.00 0.00 80 1014.5
20260902052705 26 188 0.0 1.6 0.00 0.00 0.00 80 1014.1
20260902051705 26 202 1.6 3.2 0.00 0.00 0.00 79 1014.1
20260902051205 26 122 1.6 3.2 0.00 0.00 0.00 80 1014.2
20260902045705 26 149 1.6 4.8 0.00 0.00 0.00 81 1014.2
20260902045205 26 118 1.6 4.8 0.00 0.00 0.00 81 1014.2
20260902044705 26 87 3.2 4.8 0.00 0.00 0.00 81 1014.4
20260902043705 26 66 4.8 8.0 0.00 0.00 0.00 80 1014.3
20260902042705 26 93 4.8 16.1 0.00 0.00 0.00 82 1014.5
20260902042206 26 94 8.0 16.1 0.00 0.00 0.00 80 1014.4
20260902041705 27 91 11.3 19.3 0.00 0.00 0.00 84 1014.6
20260902041206 27 80 6.4 9.7 0.00 0.00 0.00 85 1014.5
20260902040705 27 75 4.8 11.3 0.00 0.00 0.00 85 1014.4
20260902040205 27 81 4.8 8.0 0.00 0.00 0.00 86 1014.5
20260902035705 27 67 4.8 8.0 0.00 0.00 0.00 86 1014.4
20260902035206 27 127 3.2 4.8 0.00 0.00 0.00 86 1014.3
20260902034705 27 318 1.6 3.2 0.00 0.00 0.00 86 1014.2
20260902034206 27 317 1.6 4.8 0.00 0.00 0.00 86 1014.1
20260902033705 27 39 1.6 16.1 0.00 0.00 0.00 87 1014.1
20260902033205 27 65 11.3 16.1 0.00 0.00 0.00 89 1013.9
20260902032206 27 88 0.0 3.2 0.00 0.00 0.00 88 1013.6
20260902031705 27 142 1.6 3.2 0.00 0.00 0.00 88 1013.6
20260902031206 27 142 1.6 3.2 0.00 0.00 0.00 88 1013.6
20260902030206 27 122 0.0 1.6 0.00 0.00 0.00 87 1013.5
20260902025706 27 122 0.0 1.6 0.00 0.00 0.00 87 1013.5
20260902024205 27 268 0.0 1.6 0.00 0.00 0.00 86 1013.2
20260902023705 27 268 0.0 3.2 0.00 0.00 0.00 87 1013.2
20260902023205 27 268 0.0 3.2 0.00 0.00 0.00 87 1013.1
20260902022705 27 228 3.2 4.8 0.00 0.00 0.00 87 1013.2
20260902021705 27 164 1.6 3.2 0.00 0.00 0.00 86 1013.2
20260902021206 27 139 1.6 3.2 0.00 0.00 0.00 86 1013.3
20260902020705 27 192 4.8 8.0 0.00 0.00 0.00 86 1013.3
20260902015705 27 237 9.7 11.3 0.00 0.00 0.00 86 1012.9
20260902015205 27 234 8.0 16.1 0.00 0.00 0.00 86 1012.9
20260902014705 27 240 11.3 19.3 0.00 0.00 0.00 86 1012.8
20260902013705 27 225 12.9 19.3 0.00 0.00 0.00 85 1012.6
20260902013205 27 217 14.5 20.9 0.00 0.00 0.00 85 1012.5
20260902012705 27 209 14.5 19.3 0.00 0.00 0.00 84 1012.5
20260902012205 27 219 14.5 19.3 0.00 0.00 0.00 84 1012.5
20260902011705 27 214 12.9 14.5 0.00 0.00 0.00 83 1012.5
20260902011205 27 217 11.3 14.5 0.00 0.00 0.00 83 1012.6
20260902010705 27 214 11.3 16.1 0.00 0.00 0.00 83 1012.7
20260902010205 27 223 11.3 16.1 0.00 0.00 0.00 83 1012.7
20260902005705 27 227 12.9 19.3 0.00 0.00 0.00 82 1012.6
20260902005205 27 216 14.5 19.3 0.00 0.00 0.00 82 1012.6
20260902004705 27 219 14.5 19.3 0.00 0.00 0.00 82 1012.3
20260902004205 27 227 14.5 19.3 0.00 0.00 0.00 82 1012.3
20260902003705 28 225 14.5 19.3 0.00 0.00 0.00 82 1012.2
20260902003205 28 222 14.5 19.3 0.00 0.00 0.00 81 1011.9
20260902002706 28 221 14.5 16.1 0.00 0.00 0.00 81 1011.7
20260902002205 28 221 14.5 19.3 0.00 0.00 0.00 81 1011.3
20260902001705 28 221 16.1 19.3 0.00 0.00 0.00 80 1011.2
20260902001205 28 216 16.1 19.3 0.00 0.00 0.00 80 1011.2
20260902000705 28 220 16.1 19.3 0.00 0.00 0.00 79 1011.4
20260902000205 28 212 14.5 19.3 0.00 0.00 0.00 78 1011.6
20260901234705 28 232 9.7 14.5 0.00 0.00 0.00 78 1011.8
20260901234205 29 224 11.3 14.5 0.00 0.00 0.00 77 1011.8
20260901233705 29 219 11.3 19.3 0.00 0.00 0.00 77 1011.8
20260901233205 29 216 12.9 16.1 0.00 0.00 0.00 77 1011.8
20260901232705 29 211 11.3 16.1 0.00 0.00 0.00 76 1011.7
20260901232205 30 211 9.7 16.1 0.00 0.00 0.00 76 1011.9
20260901231704 30 208 11.3 14.5 0.00 0.00 0.00 76 1011.9
20260901230705 30 205 9.7 12.9 0.00 0.00 0.00 75 1012.1
20260901230205 30 211 9.7 16.1 0.00 0.00 0.00 75 1012.0
20260901225705 30 200 9.7 12.9 0.00 0.00 0.00 75 1012.1
20260901225205 30 203 11.3 16.1 0.00 0.00 0.00 74 1012.1
20260901224705 30 198 12.9 16.1 0.00 0.00 0.00 74 1012.1
20260901224205 30 204 12.9 19.3 0.00 0.00 0.00 73 1012.0
20260901223205 31 197 11.3 19.3 0.00 0.00 0.00 74 1012.0
20260901222705 31 207 14.5 19.3 0.00 0.00 0.00 73 1012.1
20260901222205 31 201 14.5 20.9 0.00 0.00 0.00 72 1012.0
20260901221705 31 198 11.3 19.3 0.00 0.00 0.00 72 1012.0
20260901221205 31 210 12.9 19.3 0.00 0.00 0.00 72 1012.2
20260901220206 31 207 12.9 19.3 0.00 0.00 0.00 71 1012.3
20260901215705 31 195 11.3 19.3 0.00 0.00 0.00 70 1012.2
20260901215205 31 187 11.3 16.1 0.00 0.00 0.00 69 1012.2
20260901214705 31 197 11.3 19.3 0.00 0.00 0.00 69 1012.3
20260901214205 32 193 9.7 14.5 0.00 0.00 0.00 69 1012.5
20260901213705 32 192 11.3 16.1 0.00 0.00 0.00 69 1012.5
20260901213205 32 197 11.3 19.3 0.00 0.00 0.00 67 1012.4
20260901212705 32 200 11.3 16.1 0.00 0.00 0.00 66 1012.4
20260901212205 32 189 11.3 19.3 0.00 0.00 0.00 67 1012.5
20260901211205 33 192 14.5 19.3 0.00 0.00 0.00 65 1012.6
20260901210705 33 198 9.7 16.1 0.00 0.00 0.00 64 1012.6
20260901210205 33 195 11.3 19.3 0.00 0.00 0.00 63 1012.6
20260901205705 33 193 12.9 19.3 0.00 0.00 0.00 63 1012.7
20260901205206 33 188 11.3 16.1 0.00 0.00 0.00 63 1012.7
20260901204705 34 196 11.3 16.1 0.00 0.00 0.00 65 1012.7
20260901204205 33 181 11.3 19.3 0.00 0.00 0.00 65 1012.7
20260901203205 33 196 8.0 14.5 0.00 0.00 0.00 66 1012.7
20260901202705 33 205 9.7 14.5 0.00 0.00 0.00 67 1012.7
20260901201705 33 204 11.3 14.5 0.00 0.00 0.00 67 1012.9
20260901201205 33 201 9.7 12.9 0.00 0.00 0.00 67 1012.9
20260901200705 33 209 9.7 19.3 0.00 0.00 0.00 67 1012.9
20260901200205 33 188 9.7 16.1 0.00 0.00 0.00 64 1012.9
20260901195704 33 198 11.3 16.1 0.00 0.00 0.00 65 1013.0
20260901195205 33 184 9.7 14.5 0.00 0.00 0.00 64 1013.1
20260901194705 33 208 9.7 14.5 0.00 0.00 0.00 67 1013.2
20260901193705 33 201 8.0 9.7 0.00 0.00 0.00 66 1013.3
20260901193205 33 200 8.0 12.9 0.00 0.00 0.00 67 1013.4
20260901192705 33 213 9.7 14.5 0.00 0.00 0.00 67 1013.4
20260901192205 33 203 11.3 14.5 0.00 0.00 0.00 67 1013.4
20260901191205 33 205 8.0 12.9 0.00 0.00 0.00 71 1013.4
20260901190205 32 210 11.3 16.1 0.00 0.00 0.00 69 1013.4
20260901185706 32 197 8.0 12.9 0.00 0.00 0.00 69 1013.5
20260901184705 32 207 8.0 11.3 0.00 0.00 0.00 72 1013.4
20260901184205 32 182 8.0 14.5 0.00 0.00 0.00 71 1013.4
20260901183705 31 209 9.7 12.9 0.00 0.00 0.00 73 1013.5
20260901182705 31 187 8.0 11.3 0.00 0.00 0.00 74 1013.6
20260901182205 32 192 8.0 11.3 0.00 0.00 0.00 73 1013.6
20260901181704 32 190 8.0 9.7 0.00 0.00 0.00 72 1013.6
20260901180205 32 189 8.0 12.9 0.00 0.00 0.00 70 1013.6
20260901175705 32 186 8.0 12.9 0.00 0.00 0.00 70 1013.6
20260901175205 32 188 8.0 11.3 0.00 0.00 0.00 68 1013.7
20260901174705 33 187 4.8 9.7 0.00 0.00 0.00 70 1013.6
20260901174205 33 179 3.2 11.3 0.00 0.00 0.00 65 1013.6
20260901173705 33 205 8.0 11.3 0.00 0.00 0.00 68 1013.7
20260901173205 33 232 8.0 11.3 0.00 0.00 0.00 70 1013.8
20260901172705 33 209 9.7 12.9 0.00 0.00 0.00 67 1013.9
20260901172205 33 190 6.4 14.5 0.00 0.00 0.00 71 1013.9
20260901171705 32 181 9.7 14.5 0.00 0.00 0.00 71 1013.8
20260901171205 32 174 9.7 16.1 0.00 0.00 0.00 71 1013.8
20260901170705 32 197 8.0 14.5 0.00 0.00 0.00 71 1013.8
20260901170205 32 204 9.7 14.5 0.00 0.00 0.00 71 1013.8
20260901165705 32 187 11.3 12.9 0.00 0.00 0.00 71 1013.9
20260901165205 32 192 9.7 12.9 0.00 0.00 0.00 72 1013.9
20260901164705 32 193 9.7 12.9 0.00 0.00 0.00 71 1013.9
20260901164205 32 191 8.0 14.5 0.00 0.00 0.00 69 1014.1
20260901163704 32 194 8.0 12.9 0.00 0.00 0.00 68 1014.1
20260901163205 32 192 8.0 11.3 0.00 0.00 0.00 68 1014.2
20260901162705 32 236 8.0 12.9 0.00 0.00 0.00 66 1014.2
20260901162205 32 234 12.9 14.5 0.00 0.00 0.00 66 1014.3
20260901161704 32 230 9.7 12.9 0.00 0.00 0.00 65 1014.4
20260901161205 32 231 9.7 12.9 0.00 0.00 0.00 69 1014.5
20260901160705 32 208 9.7 14.5 0.00 0.00 0.00 68 1014.5
20260901160205 32 224 9.7 14.5 0.00 0.00 0.00 67 1014.5
20260901155705 32 226 8.0 14.5 0.00 0.00 0.00 67 1014.6
20260901154705 32 224 8.0 14.5 0.00 0.00 0.00 69 1014.7
20260901153705 32 229 9.7 12.9 0.00 0.00 0.00 72 1014.6
20260901153205 32 229 6.4 12.9 0.00 0.00 0.00 70 1014.8
20260901152705 31 244 11.3 14.5 0.00 0.00 0.00 74 1014.8
20260901152205 31 219 6.4 9.7 0.00 0.00 0.00 70 1014.9
20260901151705 31 245 8.0 11.3 0.00 0.00 0.00 72 1015.0
20260901151205 31 233 8.0 14.5 0.00 0.00 0.00 71 1015.1
20260901150705 31 229 8.0 12.9 0.00 0.00 0.00 75 1015.1
20260901150205 31 236 9.7 14.5 0.00 0.00 0.00 75 1015.1
20260901145205 30 235 8.0 11.3 0.00 0.00 0.00 76 1015.0
20260901144705 30 226 9.7 12.9 0.00 0.00 0.00 75 1015.0
20260901144205 30 234 6.4 9.7 0.00 0.00 0.00 72 1015.0
20260901143705 30 228 6.4 11.3 0.00 0.00 0.00 72 1015.0
20260901143204 30 233 8.0 14.5 0.00 0.00 0.00 72 1014.9
20260901142705 30 228 9.7 16.1 0.00 0.00 0.00 73 1015.0
20260901142205 30 221 3.2 9.7 0.00 0.00 0.00 73 1015.0
20260901141205 30 235 9.7 11.3 0.00 0.00 0.00 74 1014.9
20260901140705 30 236 9.7 16.1 0.00 0.00 0.00 72 1014.8
20260901140205 30 228 8.0 12.9 0.00 0.00 0.00 72 1014.9
20260901135704 30 230 4.8 14.5 0.00 0.00 0.00 73 1014.9
20260901135205 30 228 12.9 19.3 0.00 0.00 0.00 74 1015.0
20260901134206 30 222 9.7 14.5 0.00 0.00 0.00 74 1015.1
20260901133705 30 230 9.7 16.1 0.00 0.00 0.00 77 1015.1
20260901132705 29 226 6.4 14.5 0.00 0.00 0.00 77 1015.4
20260901132205 29 258 9.7 16.1 0.00 0.00 0.00 77 1015.3
20260901131205 28 233 6.4 12.9 0.00 0.00 0.00 80 1015.4
20260901130705 28 232 8.0 14.5 0.00 0.00 0.00 82 1015.4
20260901130205 28 227 6.4 14.5 0.00 0.00 0.00 85 1015.4
20260901125705 27 235 8.0 9.7 0.00 0.00 0.00 86 1015.4
20260901125205 27 223 4.8 9.7 0.00 0.00 0.00 86 1015.3
20260901124705 27 219 6.4 8.0 0.00 0.00 0.00 87 1015.3
20260901123705 26 225 6.4 9.7 0.00 0.00 0.00 91 1015.3
20260901123204 26 229 9.7 11.3 0.00 0.00 0.00 92 1015.2
20260901122705 26 224 9.7 11.3 0.00 0.00 0.00 93 1015.4
20260901122205 25 226 9.7 11.3 0.00 0.00 0.00 94 1015.3
20260901121705 25 230 8.0 11.3 0.00 0.00 0.00 95 1015.4